Location: Carabito
(9.8355°N, 67.9249°W)
Time: 21:25:45
(UTC+00:00)

NOSS 3 (A) - Pass Details

Date: 23 May 2024
Orbit: 160 x 953 km, 63.3° (Epoch: 23 April)

Event Time Altitude Azimuth Distance (km) Brightness Sun altitude
Exits shadow 09:41:53 - 217° (SW) 1,442 6.9 -7.2°
Reaches altitude 10° 09:42:30 10° 220° (SW) 1,182 6.5 -7.1°
Maximum altitude 09:44:54 38° 292° (WNW) 408 4.4 -6.5°
Drops below altitude 10° 09:46:49 10° 5° (N) 939 6.9 -6.1°
Sets 09:48:26 0° 14° (NNE) 1,634 8.3 -5.7°
